User: anonymous   Login
Location: Caltech
(34.1382°N, 118.1253°W)
Time: 12:56:53
(UTC-07:00)
Language:

Iridium 75 - Orbit

View from above orbital plane
View from above orbital plane
View from above satellite
View from above satellite

Ground track
Ground track

The orbit data is extracted from the following two-line orbital elements,

1 25346U 98032E   16239.43771398  .00000017  00000-0 -11272-5 0  9992
2 25346  86.4004 347.3317 0002160  96.4021 308.0685 14.34220176957420
Epoch (UTC): 26 August 2016 10:30:18
Eccentricity: 0.0002160
inclination: 86.4004°
perigee height: 776 km
apogee height: 779 km
right ascension of ascending node: 347.3317°
argument of perigee: 96.4021°
revolutions per day: 14.34220176
mean anomaly at epoch: 308.0685°
orbit number at epoch: 95742

The dashed part of the orbit path shows where the satellite is in the earth's shadow,  

DLR